AIC237 VOMM-VOBL

Flight info

Callsign AIC237
Flight time 0h 38m
Altitude 20000
Route MMV W117 XIVIL XIVIL7E
Aircraft A320/M-SDE3FGHIRWY/LB1

Departure

Time 2026-04-23 07:58
Airport Chennai International Airport (VOMM)

Arrival

Time 2026-04-23 08:36
Airport Kempegowda International Airport Bengaluru (VOBL)
Time Latitude Longitude Altitude Speed Heading
2026-04-23 07:41 12.98478 80.16676 52 ft 0 kts 160°
2026-04-23 07:46 12.98485 80.16674 52 ft 2 kts 160°
2026-04-23 07:46 12.98499 80.16669 51 ft 2 kts 160°
2026-04-23 07:46 12.98513 80.16664 51 ft 2 kts 160°
2026-04-23 07:47 12.98528 80.16659 51 ft 2 kts 160°
2026-04-23 07:47 12.98537 80.16655 50 ft 1 kts 161°
2026-04-23 07:47 12.98547 80.16646 50 ft 2 kts 105°
2026-04-23 07:47 12.98548 80.16637 50 ft 0 kts 73°
2026-04-23 07:48 12.98545 80.16629 50 ft 0 kts 69°
2026-04-23 07:48 12.98544 80.16628 50 ft 0 kts 70°
2026-04-23 07:49 12.98544 80.16629 50 ft 0 kts 70°
2026-04-23 07:50 12.98548 80.16639 50 ft 3 kts 70°
2026-04-23 07:50 12.98565 80.16685 50 ft 9 kts 69°
2026-04-23 07:50 12.98592 80.16753 51 ft 10 kts 54°
2026-04-23 07:50 12.98663 80.16753 49 ft 12 kts 340°
2026-04-23 07:51 12.98753 80.16743 47 ft 14 kts 40°
2026-04-23 07:51 12.98793 80.16833 48 ft 13 kts 69°
2026-04-23 07:51 12.98829 80.16929 48 ft 14 kts 69°
2026-04-23 07:51 12.98865 80.17027 48 ft 14 kts 69°
2026-04-23 07:52 12.98903 80.17123 49 ft 14 kts 68°
2026-04-23 07:52 12.98940 80.17216 50 ft 14 kts 65°
2026-04-23 07:52 12.98988 80.17310 48 ft 15 kts 67°
2026-04-23 07:52 12.99025 80.17414 49 ft 15 kts 71°
2026-04-23 07:53 12.99063 80.17515 49 ft 15 kts 68°
2026-04-23 07:53 12.99092 80.17593 49 ft 4 kts 70°
2026-04-23 07:53 12.99105 80.17625 50 ft 5 kts 68°
2026-04-23 07:53 12.99122 80.17665 50 ft 6 kts 60°
2026-04-23 07:54 12.99170 80.17697 49 ft 9 kts 18°
2026-04-23 07:54 12.99217 80.17754 49 ft 11 kts 68°
2026-04-23 07:54 12.99247 80.17829 49 ft 11 kts 68°
2026-04-23 07:54 12.99277 80.17906 51 ft 11 kts 68°
2026-04-23 07:55 12.99307 80.17988 52 ft 12 kts 69°
2026-04-23 07:55 12.99346 80.18089 51 ft 17 kts 69°
2026-04-23 07:55 12.99364 80.18206 51 ft 16 kts 88°
2026-04-23 07:55 12.99393 80.18283 52 ft 10 kts 46°
2026-04-23 07:56 12.99445 80.18334 52 ft 10 kts 44°
2026-04-23 07:56 12.99499 80.18386 53 ft 11 kts 43°
2026-04-23 07:56 12.99574 80.18404 53 ft 14 kts 307°
2026-04-23 07:56 12.99546 80.18301 52 ft 18 kts 246°
2026-04-23 07:57 12.99451 80.18055 49 ft 63 kts 250°
2026-04-23 07:57 12.99206 80.17412 44 ft 125 kts 249°
2026-04-23 07:57 12.98817 80.16435 74 ft 168 kts 242°
2026-04-23 07:57 12.98312 80.15308 449 ft 178 kts 243°
2026-04-23 07:58 12.97837 80.14125 980 ft 183 kts 247°
2026-04-23 07:58 12.97393 80.12899 1556 ft 185 kts 247°
2026-04-23 07:58 12.96945 80.11664 1937 ft 194 kts 247°
2026-04-23 07:58 12.96440 80.10303 2223 ft 210 kts 247°
2026-04-23 07:59 12.95899 80.08861 2534 ft 226 kts 247°
2026-04-23 07:59 12.95467 80.07270 2877 ft 243 kts 269°
2026-04-23 07:59 12.95803 80.05505 3219 ft 260 kts 289°
2026-04-23 07:59 12.96461 80.03712 3562 ft 277 kts 291°
2026-04-23 08:00 12.97141 80.01865 4093 ft 285 kts 290°
2026-04-23 08:00 12.97797 79.99947 4827 ft 286 kts 290°
2026-04-23 08:00 12.98427 79.98000 5545 ft 288 kts 289°
2026-04-23 08:00 12.99029 79.96060 6230 ft 290 kts 289°
2026-04-23 08:01 12.99628 79.94087 6945 ft 293 kts 289°
2026-04-23 08:01 13.00229 79.92076 7697 ft 297 kts 290°
2026-04-23 08:01 13.00834 79.90041 8419 ft 301 kts 290°
2026-04-23 08:01 13.01443 79.87983 9121 ft 304 kts 290°
2026-04-23 08:02 13.02055 79.85902 9840 ft 308 kts 290°
2026-04-23 08:02 13.02672 79.83813 10416 ft 316 kts 290°
2026-04-23 08:02 13.03334 79.81576 10750 ft 333 kts 290°
2026-04-23 08:02 13.04016 79.79269 11254 ft 343 kts 289°
2026-04-23 08:03 13.04702 79.76932 11928 ft 346 kts 289°
2026-04-23 08:03 13.05390 79.74575 12596 ft 349 kts 289°
2026-04-23 08:03 13.06086 79.72192 13247 ft 352 kts 289°
2026-04-23 08:03 13.06790 79.69788 13913 ft 354 kts 289°
2026-04-23 08:04 13.07500 79.67362 14588 ft 355 kts 288°
2026-04-23 08:04 13.08205 79.64953 15221 ft 356 kts 288°
2026-04-23 08:04 13.08915 79.62524 15654 ft 357 kts 288°
2026-04-23 08:04 13.09625 79.60091 15844 ft 357 kts 287°
2026-04-23 08:05 13.10337 79.57642 15797 ft 356 kts 287°
2026-04-23 08:05 13.11042 79.55217 15820 ft 356 kts 287°
2026-04-23 08:05 13.11748 79.52795 15857 ft 356 kts 287°
2026-04-23 08:05 13.12462 79.50343 15804 ft 356 kts 287°
2026-04-23 08:06 13.13163 79.47932 15775 ft 356 kts 287°
2026-04-23 08:06 13.13877 79.45479 15792 ft 356 kts 287°
2026-04-23 08:06 13.14578 79.43070 15811 ft 356 kts 287°
2026-04-23 08:06 13.15292 79.40617 15799 ft 355 kts 287°
2026-04-23 08:07 13.15989 79.38219 15818 ft 355 kts 287°
2026-04-23 08:07 13.16696 79.35786 15803 ft 355 kts 287°
2026-04-23 08:07 13.17408 79.33341 15804 ft 355 kts 287°
2026-04-23 08:07 13.18106 79.30938 15808 ft 355 kts 287°
2026-04-23 08:08 13.18815 79.28499 15805 ft 355 kts 287°
2026-04-23 08:08 13.19522 79.26066 15811 ft 355 kts 287°
2026-04-23 08:08 13.20222 79.23654 15818 ft 355 kts 287°
2026-04-23 08:08 13.20929 79.21216 15815 ft 355 kts 287°
2026-04-23 08:09 13.21635 79.18782 15815 ft 355 kts 287°
2026-04-23 08:09 13.22340 79.16349 15816 ft 356 kts 287°
2026-04-23 08:09 13.23041 79.13930 15818 ft 356 kts 287°
2026-04-23 08:09 13.23750 79.11485 15820 ft 356 kts 287°
2026-04-23 08:10 13.24451 79.09063 15823 ft 356 kts 287°
2026-04-23 08:10 13.25160 79.06608 15830 ft 356 kts 287°
2026-04-23 08:10 13.26562 79.01753 15832 ft 355 kts 287°
2026-04-23 08:11 13.27270 78.99304 15830 ft 355 kts 287°
2026-04-23 08:11 13.27969 78.96883 15845 ft 356 kts 287°
2026-04-23 08:11 13.28673 78.94443 15861 ft 356 kts 286°
2026-04-23 08:11 13.29172 78.91960 15868 ft 355 kts 277°
2026-04-23 08:12 13.29289 78.89453 15878 ft 356 kts 268°
2026-04-23 08:12 13.29143 78.86904 15888 ft 356 kts 266°
2026-04-23 08:12 13.28951 78.84392 15897 ft 356 kts 265°
2026-04-23 08:12 13.28751 78.81842 15906 ft 357 kts 265°
2026-04-23 08:13 13.28560 78.79343 15910 ft 356 kts 265°
2026-04-23 08:13 13.28416 78.76785 15914 ft 356 kts 270°
2026-04-23 08:13 13.28483 78.74255 15920 ft 355 kts 272°
2026-04-23 08:13 13.28607 78.71727 15926 ft 355 kts 273°
2026-04-23 08:14 13.28728 78.69173 15933 ft 355 kts 273°
2026-04-23 08:14 13.28836 78.66637 15929 ft 356 kts 272°
2026-04-23 08:14 13.28936 78.64119 15931 ft 355 kts 272°
2026-04-23 08:14 13.29028 78.61603 15935 ft 355 kts 272°
2026-04-23 08:15 13.29118 78.59050 15941 ft 355 kts 272°
2026-04-23 08:15 13.29203 78.56521 15943 ft 356 kts 272°
2026-04-23 08:15 13.29289 78.53995 15943 ft 356 kts 272°
2026-04-23 08:15 13.29375 78.51437 15943 ft 356 kts 272°
2026-04-23 08:16 13.29459 78.48919 15946 ft 356 kts 272°
2026-04-23 08:16 13.29543 78.46372 15949 ft 356 kts 272°
2026-04-23 08:16 13.29625 78.43848 15951 ft 356 kts 272°
2026-04-23 08:16 13.29708 78.41299 15953 ft 356 kts 272°
2026-04-23 08:17 13.29789 78.38777 15954 ft 355 kts 272°
2026-04-23 08:17 13.29872 78.36229 15955 ft 355 kts 272°
2026-04-23 08:17 13.29953 78.33720 15962 ft 355 kts 271°
2026-04-23 08:17 13.30035 78.31179 15970 ft 355 kts 271°
2026-04-23 08:18 13.30116 78.28643 15977 ft 355 kts 271°
2026-04-23 08:18 13.30197 78.26118 15981 ft 356 kts 271°
2026-04-23 08:18 13.30278 78.23586 15896 ft 356 kts 271°
2026-04-23 08:18 13.30358 78.21071 15665 ft 354 kts 272°
2026-04-23 08:19 13.30425 78.18545 15433 ft 352 kts 271°
2026-04-23 08:19 13.30464 78.16044 15208 ft 351 kts 271°
2026-04-23 08:19 13.30495 78.13519 14975 ft 352 kts 271°
2026-04-23 08:19 13.30529 78.11025 14740 ft 351 kts 271°
2026-04-23 08:20 13.30562 78.08521 14515 ft 351 kts 271°
2026-04-23 08:20 13.30596 78.06018 14281 ft 351 kts 271°
2026-04-23 08:20 13.30631 78.03526 14046 ft 350 kts 271°
2026-04-23 08:20 13.30666 78.01030 13815 ft 350 kts 272°
2026-04-23 08:21 13.30701 77.98518 13587 ft 350 kts 272°
2026-04-23 08:21 13.30734 77.96027 13392 ft 350 kts 272°
2026-04-23 08:21 13.30768 77.93552 13079 ft 346 kts 272°
2026-04-23 08:21 13.30800 77.91132 12881 ft 337 kts 272°
2026-04-23 08:22 13.30832 77.88745 12699 ft 327 kts 272°
2026-04-23 08:22 13.30864 77.86455 12535 ft 317 kts 272°
2026-04-23 08:22 13.30893 77.84242 12368 ft 308 kts 272°
2026-04-23 08:22 13.30923 77.82076 12205 ft 299 kts 272°
2026-04-23 08:23 13.30951 77.79961 12042 ft 290 kts 272°
2026-04-23 08:23 13.30977 77.77927 11887 ft 282 kts 272°
2026-04-23 08:23 13.30995 77.75949 11681 ft 276 kts 272°
2026-04-23 08:23 13.31012 77.73983 11377 ft 274 kts 272°
2026-04-23 08:24 13.31028 77.72024 11057 ft 273 kts 272°
2026-04-23 08:24 13.31045 77.70077 10764 ft 272 kts 272°
2026-04-23 08:24 13.31060 77.68146 10464 ft 271 kts 272°
2026-04-23 08:24 13.31075 77.66232 10148 ft 270 kts 272°
2026-04-23 08:25 13.31090 77.64309 9967 ft 268 kts 272°
2026-04-23 08:25 13.31106 77.62383 9963 ft 269 kts 272°
2026-04-23 08:25 13.31121 77.60484 9953 ft 269 kts 272°
2026-04-23 08:25 13.31134 77.58547 9965 ft 270 kts 272°
2026-04-23 08:26 13.31149 77.56632 9959 ft 270 kts 272°
2026-04-23 08:26 13.31164 77.54721 9831 ft 267 kts 272°
2026-04-23 08:26 13.31179 77.52789 9332 ft 275 kts 272°
2026-04-23 08:26 13.31198 77.50792 8810 ft 283 kts 272°
2026-04-23 08:27 13.31220 77.48762 8307 ft 289 kts 272°
2026-04-23 08:27 13.31243 77.46680 7799 ft 295 kts 272°
2026-04-23 08:27 13.31251 77.44563 7294 ft 301 kts 267°
2026-04-23 08:27 13.30706 77.42482 6782 ft 306 kts 241°
2026-04-23 08:28 13.29359 77.40831 6297 ft 306 kts 214°
2026-04-23 08:28 13.27488 77.39952 6004 ft 285 kts 188°
2026-04-23 08:28 13.25582 77.39732 5968 ft 269 kts 181°
2026-04-23 08:28 13.23710 77.39644 5971 ft 268 kts 179°
2026-04-23 08:29 13.21838 77.39579 5970 ft 267 kts 179°
2026-04-23 08:29 13.20006 77.39814 5960 ft 262 kts 154°
2026-04-23 08:29 13.18565 77.40837 5945 ft 241 kts 125°
2026-04-23 08:29 13.17924 77.42291 5928 ft 211 kts 92°
2026-04-23 08:30 13.18106 77.43689 6033 ft 193 kts 74°
2026-04-23 08:30 13.18521 77.44994 5998 ft 191 kts 68°
2026-04-23 08:30 13.19126 77.46203 5977 ft 190 kts 60°
2026-04-23 08:30 13.19806 77.47355 5963 ft 190 kts 59°
2026-04-23 08:31 13.20425 77.48555 5964 ft 189 kts 70°
2026-04-23 08:31 13.20732 77.49872 5965 ft 190 kts 81°
2026-04-23 08:31 13.20834 77.51225 5966 ft 191 kts 86°
2026-04-23 08:31 13.20859 77.52581 5826 ft 191 kts 88°
2026-04-23 08:32 13.20854 77.53895 5593 ft 178 kts 89°
2026-04-23 08:32 13.20842 77.55116 5352 ft 162 kts 90°
2026-04-23 08:32 13.20830 77.56220 5141 ft 147 kts 89°
2026-04-23 08:32 13.20821 77.57254 4961 ft 143 kts 90°
2026-04-23 08:33 13.20812 77.58260 4803 ft 142 kts 91°
2026-04-23 08:33 13.20802 77.59285 4639 ft 142 kts 90°
2026-04-23 08:33 13.20793 77.60302 4476 ft 142 kts 90°
2026-04-23 08:33 13.20784 77.61314 4307 ft 141 kts 90°
2026-04-23 08:34 13.20774 77.62310 4137 ft 141 kts 90°
2026-04-23 08:34 13.20764 77.63316 3960 ft 141 kts 90°
2026-04-23 08:34 13.20758 77.64319 3782 ft 140 kts 91°
2026-04-23 08:34 13.20748 77.65330 3608 ft 140 kts 91°
2026-04-23 08:35 13.20738 77.66324 3438 ft 140 kts 91°
2026-04-23 08:35 13.20730 77.67333 3262 ft 140 kts 91°
2026-04-23 08:35 13.20721 77.68323 3095 ft 140 kts 91°
2026-04-23 08:35 13.20712 77.69289 3002 ft 117 kts 90°
2026-04-23 08:36 13.20710 77.69881 2995 ft 66 kts 91°
2026-04-23 08:36 13.20703 77.70262 2989 ft 45 kts 90°
2026-04-23 08:36 13.20638 77.70548 2979 ft 36 kts 122°
2026-04-23 08:36 13.20614 77.70589 2978 ft 1 kts 118°
2026-04-23 08:37 13.20601 77.70615 2976 ft 6 kts 117°
2026-04-23 08:37 13.20572 77.70668 2974 ft 10 kts 120°
2026-04-23 08:37 13.20533 77.70747 2970 ft 14 kts 105°
2026-04-23 08:37 13.20527 77.70860 2965 ft 18 kts 90°
2026-04-23 08:38 13.20525 77.71004 2956 ft 22 kts 91°
2026-04-23 08:38 13.20524 77.71169 2950 ft 24 kts 90°
2026-04-23 08:38 13.20522 77.71349 2944 ft 25 kts 91°
2026-04-23 08:38 13.20522 77.71521 2944 ft 23 kts 91°
2026-04-23 08:39 13.20519 77.71687 2944 ft 21 kts 91°
2026-04-23 08:39 13.20518 77.71837 2944 ft 20 kts 90°
2026-04-23 08:39 13.20517 77.71976 2945 ft 18 kts 90°
2026-04-23 08:39 13.20516 77.72068 2944 ft 0 kts 90°
2026-04-23 08:40 13.20516 77.72073 2944 ft 0 kts 90°
2026-04-23 08:40 13.20515 77.72084 2943 ft 2 kts 110°
2026-04-23 08:40 13.20500 77.72100 2944 ft 3 kts 150°
2026-04-23 08:40 13.20475 77.72107 2944 ft 5 kts 172°
2026-04-23 08:41 13.20419 77.72112 2946 ft 10 kts 180°
2026-04-23 08:41 13.20332 77.72109 2950 ft 14 kts 181°
2026-04-23 08:41 13.20214 77.72109 2952 ft 19 kts 180°
2026-04-23 08:41 13.20066 77.72110 2955 ft 20 kts 178°
2026-04-23 08:42 13.19935 77.72113 2960 ft 18 kts 165°